Flag for Switzerland Weather past 2 weeks in Basel, Basel-Stadt, Switzerland

Now
33 °F

Overcast.


Feels Like: 28 °F
Forecast: 29 / 38 °F
Wind: 6 mph from West

Location: Bale-Mulhouse

Current Time: Jan 25, 2015 at 5:28:21 AM

Latest Report: Jan 25, 2015 at 3:00 AM


Visibility: 8 mi

Pressure: 30.38 "Hg

Humidity: 92%

Dew point: 31 °F

Location of BaselLocation

Historic Weather in Basel — Graph

°F

Basel temperature yesterday

Maximum temperature yesterday: 37 °F (at 12:00 PM)
Minimum temperature yesterday: 32 °F (at 5:00 PM)
Average temperature yesterday: 34 °F

Past Weeks' High & Low Weather Summary

 TemperatureHumidityPressure
High61 °F (Jan 10, 2:00 PM)98% (Jan 20, 7:00 AM)30.52 "Hg (Jan 20, 7:00 AM)
Low27 °F (Jan 18, 6:00 AM)36% (Jan 13, 3:00 PM)29.73 "Hg (Jan 16, 3:00 PM)
Average39 °F85%30.06 "Hg
* Reported Jan 10 3:00 AM — Jan 25 3:00 AM, Basel, Weather by CustomWeather, © 2014

Note: Actual official high and low records may vary slightly from our data, if they occured in-between our weather recording intervals... More about our weather records

Advertising

Basel weather history for previous 24 hours

 ConditionsComfort  
Time TempWeatherWind HumidityBarometerVisibility
3:00 AM
Jan 25
33 °FOvercast.6 mph92%30.38 "Hg8 mi
2:00 AM33 °FOvercast.6 mph93%30.36 "Hg6 mi
1:00 AM33 °FLight snow. Overcast.7 mph95%30.35 "Hg3 mi
12:00 AM32 °FLight snow. Low clouds.6 mph95%30.34 "Hg2 mi
11:00 PM
Jan 24
33 °FLight snow. Overcast.8 mph94%30.33 "Hg3 mi
9:00 PM33 °FLight snow. Overcast.10 mph91%30.31 "Hg6 mi
8:00 PM33 °FLight snow. Overcast.13 mph89%30.28 "Hg6 mi
7:00 PM32 °FLight snow. Overcast.10 mph91%30.26 "Hg5 mi
6:00 PM32 °FLight snow. Low clouds.8 mph92%30.24 "Hg4 mi
5:00 PM32 °FLight snow. Low clouds.7 mph93%30.22 "Hg2 mi
4:00 PM32 °FLight snow. Low clouds.6 mph93%30.21 "Hg1 mi
3:00 PM35 °FSnow flurries. Overcast.9 mph81%30.18 "Hg5 mi
2:00 PM36 °FOvercast.12 mph79%30.18 "Hg6 mi
1:00 PM37 °FOvercast.9 mph78%30.18 "Hg5 mi
12:00 PM37 °FOvercast.6 mph77%30.20 "Hg6 mi
11:00 AM36 °FOvercast.5 mph81%30.22 "Hg5 mi
10:00 AM35 °FOvercast.3 mph87%30.24 "Hg4 mi
9:00 AM34 °FFog.2 mph92%30.25 "Hg3 mi
8:00 AM34 °FFog.3 mph92%30.25 "Hg2 mi
7:00 AM34 °FFog.3 mph92%30.25 "Hg3 mi
6:00 AM34 °FFog.3 mph93%30.26 "Hg3 mi
5:00 AM34 °FFog.5 mph93%30.27 "Hg3 mi
Weather by CustomWeather, © 2014

See weather overviewHow to use our weather pages